カタログに戻る

COSMOS 2251 DEB

運用中LEO
NORAD 34001·DEBRIS·🇷🇺 Russia

打ち上げ Jun 16, 1993 から Plesetsk Cosmodrome

Loading…

次のパス (今後24時間)

TLE

最新Source: Space-Track

元期: Sep 14, 2026, 08:54 UTC

1 34001U 93036GL  26257.37133194  .00000238  00000-0  88311-4 0  9990
2 34001  74.0381 134.6469 0019923 155.0176 321.8879 14.37344709921063

AllMySatでCOSMOS 2251 DEBをリアルタイム追跡

Download on the App Store